Weather History for Cincinnati, OH

Change the Weather History Date:

Wednesday, January 8, 2014

  Actual Average Record
Temperature  
Mean Temperature 20 °F -  
Max Temperature 30 °F 34 °F 68 °F (2008)
Min Temperature 9 °F 17 °F -12 °F (1968)
Degree Days  
Heating Degree Days 46    
Moisture  
Dew Point 13 °F    
Average Humidity 72    
Maximum Humidity 89    
Minimum Humidity 57    
Precipitation  
Precipitation 0.00 in - - ()
Sea Level Pressure  
Sea Level Pressure 30.47 in    
Wind  
Wind Speed 5 mph (SSW)    
Max Wind Speed 9 mph    
Max Gust Speed -    
Visibility 10 miles    
Events      
Averages and records for this station are not official NWS values.
T = Trace of Precipitation, MM = Missing Value Source: NWS Daily Summary

Daily Weather History Graph

Daily Weather History Graph

Search for Another Location

Airport:

Trip Planner

Search our weather history database for the weather conditions in past years. The results will help you decide how hot, cold, wet, or windy it might be!

Date:

Astronomy

Jan. 08, 2014 Rise Set
Actual Time 7:56 AM EST 5:32 PM EST
Civil Twilight 7:27 AM EST 6:01 PM EST
Nautical Twilight 6:54 AM EST 6:35 PM EST
Astronomical Twilight 6:21 AM EST 7:07 PM EST
Moon 12:22 PM EST (1/8) 1:03 AM EST (1/8)
Length of Visible Light 10h 34m
Length of Day
9h 35m
First Quarter, 56% of the Moon is Illuminated
Jan 8
First Quarter
Jan 15
Full
Jan 24
Last Quarter
Jan 30
New
Feb 6
First Quarter

Hourly Weather History & Observations

Time (EST) Temp. Windchill Dew Point Humidity Pressure Visibility Wind Dir Wind Speed Gust Speed Precip Events Conditions
12:53 AM 10.0 °F 3.6 °F 3.0 °F 73% 30.47 in 10.0 mi South 3.5 mph - N/A   Partly Cloudy
1:53 AM 9.0 °F 0.6 °F 3.9 °F 80% 30.47 in 10.0 mi SSW 4.6 mph - N/A   Clear
2:53 AM 10.0 °F 3.6 °F 3.9 °F 76% 30.48 in 10.0 mi SSW 3.5 mph - N/A   Clear
3:53 AM 9.0 °F 0.6 °F 3.9 °F 80% 30.47 in 10.0 mi SSW 4.6 mph - N/A   Clear
4:53 AM 10.0 °F 1.8 °F 5.0 °F 80% 30.46 in 10.0 mi SSW 4.6 mph - N/A   Clear
5:53 AM 10.9 °F 1.4 °F 5.0 °F 77% 30.46 in 10.0 mi South 5.8 mph - N/A   Clear
6:53 AM 10.9 °F 2.9 °F 5.0 °F 77% 30.46 in 10.0 mi SSW 4.6 mph - N/A   Clear
7:53 AM 12.0 °F 2.7 °F 7.0 °F 80% 30.48 in 10.0 mi SSW 5.8 mph - N/A   Scattered Clouds
8:53 AM 12.9 °F 3.8 °F 8.1 °F 81% 30.49 in 10.0 mi SSW 5.8 mph - N/A   Scattered Clouds
9:53 AM 16.0 °F 7.4 °F 9.0 °F 74% 30.52 in 10.0 mi South 5.8 mph - N/A   Mostly Cloudy
10:53 AM 19.9 °F 12.1 °F 10.9 °F 68% 30.51 in 10.0 mi South 5.8 mph - N/A   Overcast
11:53 AM 25.0 °F 17.1 °F 12.9 °F 60% 30.48 in 10.0 mi South 6.9 mph - N/A   Clear
12:53 PM 28.0 °F 20.0 °F 15.1 °F 58% 30.44 in 10.0 mi South 8.1 mph - N/A   Partly Cloudy
1:53 PM 30.9 °F 25.2 °F 17.1 °F 57% 30.44 in 10.0 mi South 5.8 mph - N/A   Clear
2:53 PM 30.0 °F 23.2 °F 18.0 °F 61% 30.43 in 10.0 mi South 6.9 mph - N/A   Scattered Clouds
3:53 PM 30.9 °F 22.8 °F 18.0 °F 59% 30.43 in 10.0 mi SSW 9.2 mph - N/A   Overcast
4:53 PM 30.0 °F 22.4 °F 18.0 °F 61% 30.45 in 10.0 mi SSW 8.1 mph - N/A   Mostly Cloudy
5:53 PM 30.0 °F 24.1 °F 19.0 °F 64% 30.45 in 10.0 mi SSW 5.8 mph - N/A   Scattered Clouds
6:53 PM 30.0 °F 26.5 °F 18.0 °F 61% 30.47 in 10.0 mi SW 3.5 mph - N/A   Mostly Cloudy
7:53 PM 28.9 °F - 18.0 °F 64% 30.48 in 10.0 mi Calm Calm - N/A   Overcast
8:53 PM 27.0 °F - 24.1 °F 89% 30.49 in 10.0 mi Calm Calm - N/A   Clear
9:53 PM 26.1 °F - 23.0 °F 88% 30.50 in 10.0 mi Calm Calm - N/A   Mostly Cloudy
10:53 PM 26.1 °F - 21.9 °F 84% 30.51 in 10.0 mi Calm Calm - N/A   Overcast
11:53 PM 28.0 °F 24.2 °F 21.9 °F 78% 30.51 in 10.0 mi SW 3.5 mph - 0.00 in   Overcast